Twin Falls, ID

2:30 PM MST on November 23, 2017 (GMT -0700)
Joslin Field-Magic Valley Regional

Weather History for KTWF - May, 2013

Change the Weather History Date:

Monday, May 27, 2013

  Actual Average Record
Temperature  
Mean Temperature 56 °F -  
Max Temperature 70 °F 74 °F 91 °F (2014)
Min Temperature 41 °F 45 °F 34 °F (1980)
Degree Days  
Heating Degree Days 9 7  
Month to date heating degree days 194 263  
Since 1 July heating degree days 5646 6061  
Cooling Degree Days 0 1  
Month to date cooling degree days 25 15  
Year to date cooling degree days 25 16  
Growing Degree Days 6 (Base 50)    
Moisture  
Dew Point 36 °F    
Average Humidity 55    
Maximum Humidity 86    
Minimum Humidity 24    
Precipitation  
Precipitation 0.04 in 0.04 in 0.79 in (2006)
Month to date precipitation 0.21 1.19  
Year to date precipitation 2.71 5.16  
Sea Level Pressure  
Sea Level Pressure 29.87 in    
Wind  
Wind Speed 10 mph (WSW)    
Max Wind Speed 20 mph    
Max Gust Speed 24 mph    
Visibility 10 miles    
Events Rain    
T = Trace of Precipitation, MM = Missing Value Source: NWS Daily Summary

Daily Weather History Graph

Daily Weather History Graph

Search for Another Location

Airport or City:

Trip Planner

Search our weather history database for the weather conditions in past years. The results will help you decide how hot, cold, wet, or windy it might be!

Date:

Astronomy

May. 27, 2013 Rise Set
Actual Time 6:05 AM MDT 9:04 PM MDT
Civil Twilight 5:32 AM MDT 9:38 PM MDT
Nautical Twilight 4:49 AM MDT 10:21 PM MDT
Astronomical Twilight 3:59 AM MDT 11:11 PM MDT
Moon 11:45 PM MDT (5/27) 8:49 AM MDT (5/27)
Length of Visible Light 16h 06m
Length of Day
14h 58m
Waning Gibbous, 90% of the Moon is Illuminated
May 27
Waning Gibbous
May 31
Last Quarter
Jun 8
New
Jun 16
First Quarter
Jun 23
Full

Hourly Weather History & Observations

Time (MDT) Temp. Windchill Dew Point Humidity Pressure Visibility Wind Dir Wind Speed Gust Speed Precip Events Conditions
12:53 AM 46.0 °F 41.4 °F 37.9 °F 73% 29.90 in 10.0 mi South 9.2 mph - N/A   Clear
1:53 AM 48.0 °F - 37.0 °F 66% 29.90 in 10.0 mi SW 13.8 mph - N/A   Clear
2:53 AM 48.9 °F - 36.0 °F 61% 29.92 in 10.0 mi WSW 15.0 mph - N/A   Scattered Clouds
3:53 AM 46.0 °F 40.2 °F 35.1 °F 66% 29.94 in 10.0 mi SW 12.7 mph - N/A   Clear
4:53 AM 46.0 °F 40.2 °F 34.0 °F 63% 29.93 in 10.0 mi SSW 12.7 mph - N/A   Partly Cloudy
5:53 AM 43.0 °F 36.4 °F 33.1 °F 68% 29.94 in 10.0 mi SSW 12.7 mph - N/A   Clear
6:53 AM 44.1 °F 38.1 °F 34.0 °F 68% 29.94 in 10.0 mi South 11.5 mph - N/A   Clear
7:53 AM 51.1 °F - 35.1 °F 54% 29.94 in 10.0 mi SSW 11.5 mph - N/A   Clear
8:53 AM 57.0 °F - 34.0 °F 42% 29.94 in 10.0 mi West 13.8 mph - N/A   Clear
9:53 AM 59.0 °F - 35.1 °F 41% 29.94 in 10.0 mi WNW 12.7 mph 18.4 mph N/A   Clear
10:53 AM 63.0 °F - 34.0 °F 34% 29.91 in 10.0 mi WNW 11.5 mph - N/A   Clear
11:53 AM 64.9 °F - 30.0 °F 27% 29.90 in 10.0 mi WNW 12.7 mph 17.3 mph N/A   Clear
12:53 PM 66.0 °F - 33.1 °F 29% 29.88 in 10.0 mi WNW 11.5 mph - N/A   Clear
1:53 PM 69.1 °F - 32.0 °F 25% 29.84 in 10.0 mi NW 10.4 mph - N/A   Clear
2:53 PM 66.0 °F - 32.0 °F 28% 29.81 in 10.0 mi NNW 9.2 mph - N/A   Clear
3:53 PM 70.0 °F - 32.0 °F 25% 29.79 in 10.0 mi North 9.2 mph - N/A   Clear
4:53 PM 68.0 °F - 30.9 °F 25% 29.78 in 10.0 mi NNW 4.6 mph - N/A   Scattered Clouds
5:53 PM 66.9 °F - 32.0 °F 27% 29.79 in 10.0 mi NW 10.4 mph - N/A   Overcast
6:44 PM 62.6 °F - 35.6 °F 37% 29.91 in 10.0 mi SW 16.1 mph 21.9 mph 0.00 in Rain Light Rain
6:53 PM 61.0 °F - 37.0 °F 41% 29.82 in 10.0 mi West 13.8 mph 23.0 mph 0.00 in Rain Light Rain
7:53 PM 55.0 °F - 46.0 °F 72% 29.83 in 10.0 mi West 9.2 mph - 0.01 in Rain Light Rain
8:53 PM 53.1 °F - 46.9 °F 80% 29.82 in 10.0 mi WSW 3.5 mph - 0.01 in Rain Light Rain
9:53 PM 51.1 °F - 46.9 °F 86% 29.83 in 8.0 mi West 3.5 mph - 0.01 in Rain Light Rain
10:53 PM 50.0 °F - 46.0 °F 86% 29.81 in 10.0 mi SSE 5.8 mph - 0.01 in   Overcast
11:53 PM 46.9 °F - 43.0 °F 86% 29.78 in 10.0 mi SE 8.1 mph - N/A   Partly Cloudy